When you browse on this site, cookies collect data to enhance your experience and personalize the content and advertising you see.
Visit our Privacy Policy to learn more. By continuing to use the site, you agree to this use of cookies and data.
  • In Hungary
  • List of Countries
  • For 7 days
  • Water Temperature
  • Weather Map
  • News
  • Weather Widgets
  • user-avatar
    Login

    Hourly Weather Gochada

    Today, 22 October, Tuesday

    Time Temperature Precipitation Wind Pressure Humidity
    00:00 +8°C° 0 mm 1 mps 634 mmHg 83%
    01:00 +8°C° 0 mm 1 mps 634 mmHg 82%
    02:00 +8°C° 0 mm 1 mps 634 mmHg 82%
    03:00 +8°C° 0 mm 1 mps 633 mmHg 81%
    04:00 +8°C° 0 mm 1 mps 633 mmHg 77%
    05:00 +7°C° 0 mm 1 mps 634 mmHg 72%
    06:00 +7°C° 0 mm 1 mps 634 mmHg 68%
    07:00 +9°C° 0 mm 1 mps 634 mmHg 62%
    08:00 +11°C° 0 mm 1 mps 635 mmHg 56%
    09:00 +13°C° 0 mm 1 mps 636 mmHg 49%
    10:00 +13°C° 0 mm 1 mps 636 mmHg 48%
    11:00 +14°C° 0 mm 2 mps 636 mmHg 47%
    12:00 +15°C° 0 mm 2 mps 636 mmHg 46%
    13:00 +15°C° 0 mm 2 mps 636 mmHg 48%
    14:00 +15°C° 0 mm 2 mps 636 mmHg 50%
    15:00 +15°C° 0 mm 2 mps 636 mmHg 53%
    16:00 +13°C° 0 mm 2 mps 635 mmHg 63%
    17:00 +11°C° 0 mm 1 mps 635 mmHg 73%
    18:00 +8°C° 0 mm 0 mps 634 mmHg 84%
    19:00 +8°C° 0 mm 0 mps 634 mmHg 83%
    20:00 +8°C° 0 mm 0 mps 634 mmHg 82%
    21:00 +7°C° 0 mm 0 mps 634 mmHg 82%
    22:00 +8°C° 0 mm 1 mps 634 mmHg 81%
    23:00 +8°C° 0 mm 1 mps 633 mmHg 81%

    Tomorrow, 23 October, Wednesday

    Time Temperature Precipitation Wind Pressure Humidity
    00:00 +8°C° 0 mm 1 mps 633 mmHg 80%
    01:00 +8°C° 0 mm 1 mps 633 mmHg 79%
    02:00 +7°C° 0 mm 1 mps 633 mmHg 77%
    03:00 +7°C° 0 mm 1 mps 633 mmHg 75%
    04:00 +7°C° 0 mm 1 mps 633 mmHg 74%
    05:00 +7°C° 0 mm 1 mps 633 mmHg 72%
    06:00 +6°C° 0 mm 0 mps 633 mmHg 71%
    07:00 +9°C° 0 mm 1 mps 633 mmHg 62%
    08:00 +10°C° 0 mm 1 mps 634 mmHg 53%
    09:00 +12°C° 0 mm 1 mps 635 mmHg 44%
    10:00 +13°C° 0 mm 1 mps 635 mmHg 44%
    11:00 +14°C° 0 mm 2 mps 635 mmHg 44%
    12:00 +14°C° 0 mm 2 mps 635 mmHg 45%
    13:00 +14°C° 0 mm 2 mps 635 mmHg 48%
    14:00 +14°C° 0 mm 2 mps 635 mmHg 51%
    15:00 +14°C° 0 mm 2 mps 634 mmHg 54%
    16:00 +12°C° 0 mm 2 mps 634 mmHg 65%
    17:00 +10°C° 0 mm 1 mps 633 mmHg 76%
    18:00 +7°C° 0 mm 0 mps 633 mmHg 87%
    19:00 +7°C° 0 mm 0 mps 633 mmHg 86%
    20:00 +7°C° 0 mm 0 mps 633 mmHg 86%
    21:00 +7°C° 0 mm 0 mps 633 mmHg 85%
    22:00 +7°C° 0 mm 0 mps 633 mmHg 85%
    23:00 +8°C° 0 mm 1 mps 633 mmHg 84%

    Day after tomorrow, 24 October, Thursday

    Time Temperature Precipitation Wind Pressure Humidity
    00:00 +8°C° 0 mm 1 mps 633 mmHg 84%
    01:00 +8°C° 0 mm 1 mps 633 mmHg 83%
    02:00 +8°C° 0 mm 1 mps 633 mmHg 83%
    03:00 +7°C° 0 mm 1 mps 633 mmHg 82%
    04:00 +7°C° 0 mm 1 mps 633 mmHg 82%
    05:00 +7°C° 0 mm 1 mps 633 mmHg 81%
    06:00 +7°C° 0 mm 1 mps 633 mmHg 81%
    07:00 +9°C° 0 mm 1 mps 633 mmHg 73%
    08:00 +10°C° 0 mm 1 mps 634 mmHg 65%
    09:00 +12°C° 0 mm 1 mps 635 mmHg 57%
    10:00 +13°C° 0 mm 1 mps 635 mmHg 55%
    11:00 +13°C° 0 mm 1 mps 635 mmHg 53%
    12:00 +14°C° 0 mm 2 mps 635 mmHg 51%
    13:00 +14°C° 0 mm 2 mps 635 mmHg 53%
    14:00 +14°C° 0 mm 2 mps 634 mmHg 54%
    15:00 +14°C° 0 mm 2 mps 634 mmHg 56%
    16:00 +12°C° 0 mm 1 mps 634 mmHg 65%
    17:00 +11°C° 0 mm 1 mps 633 mmHg 73%
    18:00 +8°C° 0 mm 0 mps 633 mmHg 82%
    19:00 +9°C° 0 mm 1 mps 633 mmHg 83%
    20:00 +8°C° 0 mm 1 mps 633 mmHg 84%
    21:00 +8°C° 0 mm 1 mps 633 mmHg 85%
    22:00 +8°C° 0 mm 1 mps 632 mmHg 84%
    23:00 +8°C° 0 mm 1 mps 632 mmHg 83%

    25 October, Friday

    Time Temperature Precipitation Wind Pressure Humidity
    00:00 +8°C° 0 mm 1 mps 632 mmHg 82%
    01:00 +8°C° 0 mm 1 mps 632 mmHg 81%
    02:00 +7°C° 0 mm 1 mps 632 mmHg 79%
    03:00 +7°C° 0 mm 1 mps 631 mmHg 78%
    04:00 +7°C° 0 mm 1 mps 631 mmHg 75%
    05:00 +7°C° 0 mm 1 mps 631 mmHg 73%
    06:00 +7°C° 0 mm 1 mps 631 mmHg 70%
    07:00 +9°C° 0 mm 1 mps 632 mmHg 63%
    08:00 +10°C° 0 mm 1 mps 632 mmHg 57%
    09:00 +11°C° 0 mm 0 mps 633 mmHg 51%
    10:00 +13°C° 0 mm 1 mps 633 mmHg 50%
    11:00 +14°C° 0 mm 1 mps 633 mmHg 49%
    12:00 +15°C° 0 mm 2 mps 634 mmHg 48%
    13:00 +14°C° 0 mm 2 mps 633 mmHg 52%
    14:00 +14°C° 0 mm 2 mps 633 mmHg 56%
    15:00 +13°C° 0 mm 2 mps 633 mmHg 60%
    16:00 +12°C° 0 mm 1 mps 633 mmHg 70%
    17:00 +10°C° 0 mm 1 mps 632 mmHg 80%
    18:00 +8°C° 0 mm 0 mps 632 mmHg 90%
    19:00 +8°C° 0 mm 0 mps 632 mmHg 89%
    20:00 +8°C° 0 mm 1 mps 632 mmHg 88%
    21:00 +8°C° 0 mm 1 mps 632 mmHg 87%
    22:00 +8°C° 0 mm 1 mps 632 mmHg 86%
    23:00 +8°C° 0 mm 1 mps 632 mmHg 86%

    26 October, Saturday

    Time Temperature Precipitation Wind Pressure Humidity
    00:00 +8°C° 0 mm 1 mps 632 mmHg 85%
    01:00 +7°C° 0 mm 1 mps 632 mmHg 84%
    02:00 +7°C° 0 mm 1 mps 632 mmHg 83%
    03:00 +7°C° 0 mm 1 mps 632 mmHg 82%
    04:00 +7°C° 0 mm 1 mps 632 mmHg 82%
    05:00 +7°C° 0 mm 1 mps 632 mmHg 81%
    06:00 +7°C° 0 mm 1 mps 632 mmHg 80%
    07:00 +8°C° 0 mm 1 mps 633 mmHg 73%
    08:00 +10°C° 0 mm 1 mps 634 mmHg 67%
    09:00 +12°C° 0 mm 1 mps 634 mmHg 60%
    10:00 +12°C° 0 mm 1 mps 635 mmHg 59%
    11:00 +13°C° 0 mm 2 mps 635 mmHg 57%
    12:00 +14°C° 0 mm 2 mps 635 mmHg 55%
    13:00 +14°C° 0 mm 2 mps 635 mmHg 59%
    14:00 +13°C° 0 mm 2 mps 635 mmHg 63%
    15:00 +13°C° 0 mm 2 mps 634 mmHg 67%
    16:00 +12°C° 0 mm 1 mps 634 mmHg 74%
    17:00 +10°C° 0 mm 1 mps 634 mmHg 82%
    18:00 +9°C° 0 mm 1 mps 633 mmHg 89%
    19:00 +9°C° 0 mm 1 mps 633 mmHg 87%
    20:00 +9°C° 0 mm 1 mps 633 mmHg 86%
    21:00 +7°C° 0 mm 2 mps 633 mmHg 85%
    22:00 +7°C° 0 mm 2 mps 633 mmHg 84%
    23:00 +7°C° 0 mm 2 mps 632 mmHg 84%

    27 October, Sunday

    Time Temperature Precipitation Wind Pressure Humidity
    00:00 +7°C° 0 mm 2 mps 632 mmHg 84%
    01:00 +6°C° 0 mm 2 mps 632 mmHg 83%
    02:00 +6°C° 0 mm 2 mps 632 mmHg 82%
    03:00 +6°C° 0 mm 2 mps 632 mmHg 82%
    04:00 +6°C° 0 mm 2 mps 632 mmHg 81%
    05:00 +6°C° 0 mm 2 mps 631 mmHg 80%
    06:00 +5°C° 0 mm 2 mps 631 mmHg 79%
    07:00 +7°C° 0 mm 2 mps 632 mmHg 71%
    08:00 +8°C° 0 mm 2 mps 632 mmHg 62%
    09:00 +11°C° 0 mm 1 mps 633 mmHg 54%
    10:00 +12°C° 0 mm 1 mps 633 mmHg 52%
    11:00 +13°C° 0 mm 2 mps 633 mmHg 50%
    12:00 +14°C° 0 mm 2 mps 633 mmHg 48%
    13:00 +14°C° 0 mm 2 mps 633 mmHg 50%
    14:00 +14°C° 0 mm 2 mps 632 mmHg 52%
    15:00 +13°C° 0 mm 2 mps 632 mmHg 54%
    16:00 +12°C° 0 mm 1 mps 632 mmHg 62%
    17:00 +10°C° 0 mm 1 mps 631 mmHg 69%
    18:00 +8°C° 0 mm 0 mps 630 mmHg 76%
    19:00 +9°C° 0 mm 1 mps 630 mmHg 76%
    20:00 +8°C° 0 mm 1 mps 630 mmHg 77%
    21:00 +8°C° 0 mm 1 mps 630 mmHg 78%
    22:00 +8°C° 0 mm 1 mps 630 mmHg 78%
    23:00 +8°C° 0 mm 1 mps 629 mmHg 77%

    28 October, Monday

    Time Temperature Precipitation Wind Pressure Humidity
    00:00 +8°C° 0 mm 1 mps 629 mmHg 77%
    01:00 +7°C° 0 mm 1 mps 629 mmHg 77%
    02:00 +7°C° 0 mm 1 mps 628 mmHg 76%
    03:00 +7°C° 0 mm 1 mps 628 mmHg 76%
    04:00 +7°C° 0 mm 1 mps 628 mmHg 75%
    05:00 +7°C° 0 mm 1 mps 628 mmHg 74%
    06:00 +7°C° 0 mm 1 mps 628 mmHg 73%
    07:00 +8°C° 0 mm 1 mps 628 mmHg 67%
    08:00 +10°C° 0 mm 1 mps 629 mmHg 60%
    09:00 +11°C° 0 mm 1 mps 630 mmHg 54%
    10:00 +12°C° 0 mm 1 mps 630 mmHg 52%
    11:00 +13°C° 0 mm 2 mps 630 mmHg 50%
    12:00 +14°C° 0 mm 2 mps 630 mmHg 48%
    13:00 +14°C° 0 mm 2 mps 630 mmHg 50%
    14:00 +13°C° 0 mm 2 mps 630 mmHg 53%
    15:00 +13°C° 0 mm 2 mps 630 mmHg 56%
    16:00 +12°C° 0 mm 2 mps 629 mmHg 65%
    17:00 +10°C° 0 mm 1 mps 629 mmHg 74%
    18:00 +7°C° 0 mm 0 mps 629 mmHg 83%
    19:00 +8°C° 0 mm 1 mps 629 mmHg 83%
    20:00 +8°C° 0 mm 1 mps 629 mmHg 83%
    21:00 +8°C° 0 mm 1 mps 629 mmHg 83%
    22:00 +8°C° 0 mm 1 mps 629 mmHg 82%
    23:00 +8°C° 0 mm 1 mps 629 mmHg 82%
    Show more